Showing default

UVSQ-SAT NG, 63251

Orbit data source: Space-Track

UVSQ-SAT NG, 63251 is a payload satellite owned by LATMOS (FR) in SSO that was launched on Sat, 15 Mar 2025 UTC via an FALCON 9 launch vehicle from the Air Force Western Test Range (AFWTR). Payload-class satellites include a variety of spacecraft equipped with specific instruments for various scientific and technological missions. These include communications satellites like Starlink; space stations such as the ISS; scientific satellites like the Hubble; Earth observation satellites from companies like Planet Labs, Umbra, and HawkEye 360; GPS; miniature CubeSats for education and research; and military/defense satellites.

Loading next visibility...
Identifier
63251, 2025-052AT
Orbit
SSO
Country
Flag of FRFR
Related business
Manufacturer
LATMOS
Mission
Operational Amateur Technology
Bus & Motor
CUBESAT 6U, Unknown motor
Mass
12 kg wet, 12 kg dry
Launch date (UTC)
2025-03-15 (7 months ago)
Launch vehicle
FALCON 9
Launch site
Air Force Western Test Range (AFWTR)
Object type
Payload
Rocket body
Debris
Shape & HBR
Box + 4 Pan + 1 Sail, 1.0 m
Radar Cross Section
0.090 m², Small (<0.1 m²)

Expand to show TLE details & history
Last TLE update: 12 hours ago

TLE from 12 hours ago
0 UVSQ-SAT NG
1 63251U 25052AT  25287.96325493  .00003977  00000-0  38248-3 0  9990
2 63251  97.7067 179.0752 0002721 358.2003   1.9206 14.93564238 32007
Epoch: 2025-10-14T23:07Z
TLE epoch observation values (Epoch: 2025-10-14T23:07:05.225Z)
Latitude
-0.00012°
Longitude
168.5593°
Altitude
587.984 km
Speed
7.567 km/s
True Right ascension
11h 56m 18s
True Declination
0° 00' 00"
Sunlit
Object was in daylight at epoch
Visualization orbit readout
Latitude
Unknown
Longitude
Unknown
Altitude
Unknown
Speed
Unknown
Apparent Right ascension
Unknown
Apparent Declination
Unknown
Sunlit
N/A
Visualization observer readout
Local Sidereal Time
05:48:33
Azimuth
Unknown
Elevation
Unknown
Doppler factor
Unknown
Orbital elements
Apogee altitude
585.741 km
Perigee altitude
581.953 km
Semi-major axis
6,961.984 km
Eccentricity
0.00027
Inclination
97.7067°
RAAN
179.0752°
Arg. of periapsis
358.2003°
True anomaly
1.92165°
Mean anomaly
1.9206°
Eccentric anomaly
1.92112°
Mean motion
3.73632 °/min
Orbital period
96.35 mins
BSTAR
0.00038248
Loading maneuver chart data...
Computing Atmospheric mass density...
Loading historical data...
Loading historical data...
Loading historical data...
Loading historical data...
Loading historical data...
Loading historical data...
Loading historical data...

Documentation

Showing up to 5 results
|